tititudorancea.com
Station Historical Data
Daily Summary for February 25, 2019 Units:  Metric    English   Both
« Previous Day
Next Day »
Daily Weekly Monthly Yearly Custom
  High: Low: Average:
Temperature: -17.8 °C 18.5 °C 25.8 °C
Dew Point: -17.8 °C 4.7 °C 7.1 °C
Humidity: Humidity % 19 % 31 %
Wind Speed: 0 km/h 0 km/h 12.2 km/h
Wind Gust: 0 km/h - -
Wind:- - SE
Pressure: 0 hPa 1017.8 hPa -
Precipitation: 0 mm    
Historical Graphs
 
 
Ararat weather Find more about Weather in Ararat, AU


 



 


Tabular Data for February 25, 2019
Time Temperature Dew Point Pressure Wind Wind Speed Wind Gust Humidity Rainfall Rate (Hourly)
-17.8 °C -17.8 °C 0 hPa Calm     Humidity % 0 mm
00:04 21.9 °C 7.3 °C 1020.9 hPa North 4.8 km/h 1.9 km/h 39 % 0 mm
00:09 21.9 °C 6.9 °C 1021.2 hPa North 5.6 km/h 2.4 km/h 38 % 0 mm
00:14 22 °C 7 °C 1021.2 hPa North 5.6 km/h 2.9 km/h 38 % 0 mm
00:19 21.9 °C 6.9 °C 1020.9 hPa North 3.7 km/h 1.3 km/h 38 % 0 mm
00:24 21.9 °C 6.6 °C 1020.9 hPa North 3.7 km/h 3.4 km/h 37 % 0 mm
00:29 21.9 °C 6.6 °C 1021.2 hPa North 5.6 km/h 1.9 km/h 37 % 0 mm
00:34 21.9 °C 6.6 °C 1020.9 hPa North 6.4 km/h 3.9 km/h 37 % 0 mm
00:39 21.9 °C 6.6 °C 1020.9 hPa North 5.6 km/h 3.4 km/h 37 % 0 mm
00:44 21.8 °C 6.4 °C 1020.9 hPa North 5.6 km/h 3.2 km/h 37 % 0 mm
00:49 21.7 °C 6.3 °C 1021.2 hPa North 3.7 km/h 1.6 km/h 37 % 0 mm
00:54 21.4 °C 6.2 °C 1021.2 hPa Calm     37 % 0 mm
00:59 21.2 °C 6.3 °C 1021.2 hPa North 3.7 km/h 1.9 km/h 38 % 0 mm
01:04 21.1 °C 6.2 °C 1021.2 hPa North 3.7 km/h 2.1 km/h 38 % 0 mm
01:09 21.1 °C 6.2 °C 1021.2 hPa North 3.7 km/h 1.4 km/h 38 % 0 mm
01:14 21.1 °C 6.2 °C 1021.2 hPa North 5.6 km/h 0.8 km/h 38 % 0 mm
01:19 20.9 °C 6.1 °C 1020.9 hPa North 3.7 km/h 1.4 km/h 38 % 0 mm
01:24 20.9 °C 6.1 °C 1020.9 hPa North 1.6 km/h 0.8 km/h 38 % 0 mm
01:29 20.8 °C 6 °C 1020.9 hPa North 3.7 km/h 2.6 km/h 38 % 0 mm
01:34 20.7 °C 5.9 °C 1021.2 hPa North 5.6 km/h 1.4 km/h 38 % 0 mm
01:39 20.7 °C 5.8 °C 1020.9 hPa North 3.7 km/h 1.4 km/h 38 % 0 mm
01:44 20.9 °C 5.7 °C 1020.9 hPa North 3.7 km/h 1 km/h 37 % 0 mm
01:49 20.9 °C 6.1 °C 1020.9 hPa North 5.6 km/h 2.1 km/h 38 % 0 mm
01:54 20.8 °C 6 °C 1020.9 hPa North 3.7 km/h 2.6 km/h 38 % 0 mm
01:59 20.8 °C 5.6 °C 1020.9 hPa North 6.4 km/h 4.3 km/h 37 % 0 mm
02:04 20.7 °C 5.5 °C 1020.9 hPa North 5.6 km/h 2.7 km/h 37 % 0 mm
02:09 20.6 °C 5.8 °C 1020.5 hPa North 5.6 km/h 3.1 km/h 38 % 0 mm
02:14 20.5 °C 5.7 °C 1020.5 hPa North 3.7 km/h 1.8 km/h 38 % 0 mm
02:19 20.4 °C 5.6 °C 1020.5 hPa North 4.8 km/h 3.7 km/h 38 % 0 mm
02:24 20.5 °C 5.7 °C 1020.5 hPa North 3.7 km/h 2.1 km/h 38 % 0 mm
02:29 20.5 °C 5.7 °C 1020.5 hPa North 5.6 km/h 2.9 km/h 38 % 0 mm
02:34 20.5 °C 6.1 °C 1020.5 hPa North 5.6 km/h 2.7 km/h 39 % 0 mm
02:39 20.4 °C 6 °C 1020.5 hPa North 5.6 km/h 4 km/h 39 % 0 mm
02:44 20.4 °C 6 °C 1020.5 hPa North 8 km/h 4.8 km/h 39 % 0 mm
02:49 20.6 °C 5.7 °C 1020.5 hPa North 5.6 km/h 5.5 km/h 38 % 0 mm
02:54 20.6 °C 5.8 °C 1020.5 hPa North 5.6 km/h 4 km/h 38 % 0 mm
02:59 20.8 °C 5.9 °C 1020.5 hPa North 5.6 km/h 3.1 km/h 38 % 0 mm
03:04 20.7 °C 5.9 °C 1020.5 hPa North 3.7 km/h 1.4 km/h 38 % 0 mm
03:09 20.6 °C 5.8 °C 1020.5 hPa North 1.9 km/h 1 km/h 38 % 0 mm
03:14 20.4 °C 5.9 °C 1020.5 hPa North 5.6 km/h 3.7 km/h 39 % 0 mm
03:19 20.2 °C 5.8 °C 1020.5 hPa North 6.4 km/h 5.6 km/h 39 % 0 mm
03:24 19.9 °C 5.6 °C 1020.5 hPa North 5.6 km/h 5.3 km/h 39 % 0 mm
03:29 19.7 °C 5.7 °C 1020.5 hPa North 5.6 km/h 4.5 km/h 40 % 0 mm
03:34 19.4 °C 5.8 °C 1020.5 hPa North 5.6 km/h 5.3 km/h 41 % 0 mm
03:39 19.1 °C 5.9 °C 1020.5 hPa North 8 km/h 5.8 km/h 42 % 0 mm
03:44 19 °C 5.8 °C 1020.5 hPa North 6.4 km/h 5.8 km/h 42 % 0 mm
03:49 18.9 °C 6.1 °C 1020.5 hPa North 5.6 km/h 3.7 km/h 43 % 0 mm
03:54 18.8 °C 5.9 °C 1020.5 hPa North 5.6 km/h 2.1 km/h 43 % 0 mm
03:59 18.7 °C 5.8 °C 1020.5 hPa North 5.6 km/h 3.4 km/h 43 % 0 mm
04:04 18.6 °C 5.7 °C 1020.5 hPa North 5.6 km/h 3.1 km/h 43 % 0 mm
04:09 18.5 °C 5.7 °C 1020.5 hPa North 5.6 km/h 2.3 km/h 43 % 0 mm
04:13 18.5 °C 5.7 °C 1020.9 hPa North 5.6 km/h 2.1 km/h 43 % 0 mm
07:34 19 °C 4.7 °C 1021.9 hPa North 6.4 km/h 6.1 km/h 39 % 0 mm
07:39 19.1 °C 4.8 °C 1021.9 hPa North 11.1 km/h 6.9 km/h 39 % 0 mm
07:44 19.2 °C 4.9 °C 1022.2 hPa North 7.4 km/h 7.2 km/h 39 % 0 mm
07:49 19.4 °C 5.1 °C 1022.2 hPa North 16.7 km/h 7.9 km/h 39 % 0 mm
07:54 19.7 °C 5 °C 1022.2 hPa North 14.8 km/h 6.4 km/h 38 % 0 mm
07:59 20 °C 5.2 °C 1022.2 hPa North 16.7 km/h 10.5 km/h 38 % 0 mm
08:04 20.4 °C 5.6 °C 1022.2 hPa North 20.4 km/h 8.4 km/h 38 % 0 mm
08:09 20.6 °C 5.8 °C 1022.2 hPa NNE 17.7 km/h 13.4 km/h 38 % 0 mm
08:14 20.9 °C 6.1 °C 1022.2 hPa North 14.8 km/h 9.3 km/h 38 % 0 mm
08:19 21.1 °C 6.6 °C 1022.6 hPa North 13 km/h 5.8 km/h 39 % 0 mm
08:24 21.3 °C 6.8 °C 1022.6 hPa North 11.1 km/h 5 km/h 39 % 0 mm
08:29 21.5 °C 6.9 °C 1022.6 hPa North 9.3 km/h 7.2 km/h 39 % 0 mm
08:34 21.8 °C 7.2 °C 1022.6 hPa North 13 km/h 9.3 km/h 39 % 0 mm
08:39 22 °C 7.4 °C 1022.6 hPa North 14.5 km/h 10.6 km/h 39 % 0 mm
08:44 22.1 °C 7.1 °C 1022.9 hPa North 22.2 km/h 22.2 km/h 38 % 0 mm
08:49 22.2 °C 7.2 °C 1022.9 hPa North 18.5 km/h 12.1 km/h 38 % 0 mm
08:54 22.4 °C 7.7 °C 1022.9 hPa NNE 22.2 km/h 10.5 km/h 39 % 0 mm
08:59 22.5 °C 7.8 °C 1022.9 hPa North 18.5 km/h 9 km/h 39 % 0 mm
09:04 22.6 °C 7.5 °C 1022.9 hPa NNE 27.8 km/h 17.4 km/h 38 % 0 mm
09:09 22.6 °C 7.6 °C 1022.9 hPa North 25.9 km/h 11.3 km/h 38 % 0 mm
09:14 22.7 °C 7.7 °C 1022.9 hPa NNW 25.9 km/h 14 km/h 38 % 0 mm
09:19 22.9 °C 7.8 °C 1022.9 hPa North 18.5 km/h 16.6 km/h 38 % 0 mm
09:24 23 °C 7.9 °C 1022.9 hPa North 29.6 km/h 18 km/h 38 % 0 mm
09:29 23.1 °C 7.9 °C 1022.9 hPa North 25.7 km/h 17.9 km/h 38 % 0 mm
09:34 23.2 °C 8.1 °C 1022.9 hPa North 22.5 km/h 13.7 km/h 38 % 0 mm
09:39 23.4 °C 8.3 °C 1022.6 hPa North 24.1 km/h 21.4 km/h 38 % 0 mm
09:44 23.4 °C 7.9 °C 1022.6 hPa North 29.6 km/h 16.3 km/h 37 % 0 mm
09:49 23.7 °C 8.1 °C 1022.6 hPa North 25.9 km/h 14.6 km/h 37 % 0 mm
09:54 23.9 °C 7.9 °C 1022.6 hPa NNE 22.2 km/h 22.4 km/h 36 % 0 mm
09:59 24.1 °C 8.4 °C 1022.6 hPa North 16.7 km/h 15 km/h 37 % 0 mm
10:04 24.3 °C 8.3 °C 1022.6 hPa NNE 22.2 km/h 15 km/h 36 % 0 mm
10:09 24.5 °C 8.4 °C 1022.6 hPa NNW 25.9 km/h 12.1 km/h 36 % 0 mm
10:14 24.6 °C 8.1 °C 1022.6 hPa North 31.5 km/h 17.5 km/h 35 % 0 mm
10:19 24.7 °C 8.2 °C 1022.6 hPa NE 24.1 km/h 16.9 km/h 35 % 0 mm
10:24 24.8 °C 8.3 °C 1022.6 hPa North 25.9 km/h 19.3 km/h 35 % 0 mm
10:29 25.1 °C 8.6 °C 1022.6 hPa NNW 22.2 km/h 14.5 km/h 35 % 0 mm
10:34 25.6 °C 8.9 °C 1022.6 hPa North 22.5 km/h 15.9 km/h 35 % 0 mm
10:39 25.7 °C 8.7 °C 1022.6 hPa North 24.1 km/h 20.1 km/h 34 % 0 mm
10:44 25.8 °C 8.7 °C 1022.6 hPa North 31.5 km/h 18.5 km/h 34 % 0 mm
10:49 25.9 °C 8.9 °C 1022.6 hPa North 20.4 km/h 16.1 km/h 34 % 0 mm
10:54 26.2 °C 8.7 °C 1022.6 hPa NNE 27.8 km/h 21.4 km/h 33 % 0 mm
10:59 26.3 °C 8.8 °C 1022.6 hPa NNE 31.5 km/h 21.1 km/h 33 % 0 mm
11:04 26.6 °C 9 °C 1022.6 hPa North 20.4 km/h 16.1 km/h 33 % 0 mm
11:09 26.8 °C 9.2 °C 1022.6 hPa NNE 27.8 km/h 16.4 km/h 33 % 0 mm
11:14 26.9 °C 9.3 °C 1022.6 hPa North 18.5 km/h 13 km/h 33 % 0 mm
11:19 27.2 °C 9.1 °C 1022.6 hPa North 20.4 km/h 17.4 km/h 32 % 0 mm
11:24 27.2 °C 8.6 °C 1022.6 hPa NW 29.6 km/h 23.3 km/h 31 % 0 mm
11:29 27.3 °C 9.2 °C 1022.2 hPa NNW 27.8 km/h 15.8 km/h 32 % 0 mm
11:34 27.6 °C 8.9 °C 1022.2 hPa North 25.9 km/h 13.5 km/h 31 % 0 mm
11:39 27.9 °C 9.2 °C 1022.2 hPa North 22.2 km/h 11.6 km/h 31 % 0 mm
11:44 28.1 °C 8.8 °C 1022.2 hPa North 27.8 km/h 17.2 km/h 30 % 0 mm
11:49 27.9 °C 8.8 °C 1022.2 hPa North 29.6 km/h 18.5 km/h 30 % 0 mm
11:54 28.1 °C 8.8 °C 1022.2 hPa NNW 20.4 km/h 9.3 km/h 30 % 0 mm
11:59 28.1 °C 8.9 °C 1021.9 hPa NNW 27.8 km/h 18.7 km/h 30 % 0 mm
12:04 28.4 °C 9.2 °C 1021.9 hPa NNW 20.9 km/h 18.2 km/h 30 % 0 mm
12:09 28.4 °C 8.2 °C 1021.9 hPa North 24.1 km/h 17.1 km/h 28 % 0 mm
12:14 28.6 °C 8.3 °C 1021.9 hPa NNE 25.7 km/h 12.7 km/h 28 % 0 mm
12:19 29 °C 8.1 °C 1021.6 hPa NNW 25.9 km/h 16.1 km/h 27 % 0 mm
12:24 28.9 °C 8 °C 1021.6 hPa North 31.5 km/h 16.9 km/h 27 % 0 mm
12:29 28.9 °C 8 °C 1021.9 hPa NNE 24.1 km/h 19.8 km/h 27 % 0 mm
12:34 28.8 °C 7.9 °C 1021.6 hPa NNE 37 km/h 17.4 km/h 27 % 0 mm
12:39 28.9 °C 8.1 °C 1021.6 hPa North 22.2 km/h 17.4 km/h 27 % 0 mm
12:44 29.1 °C 8.2 °C 1021.6 hPa NNE 25.9 km/h 19.5 km/h 27 % 0 mm
12:49 29.2 °C 7.7 °C 1021.2 hPa North 25.9 km/h 22.7 km/h 26 % 0 mm
12:54 29.5 °C 8 °C 1021.2 hPa North 18.5 km/h 15.4 km/h 26 % 0 mm
12:59 29.8 °C 7.6 °C 1021.2 hPa North 27.8 km/h 22 km/h 25 % 0 mm
13:04 29.6 °C 8.6 °C 1021.2 hPa NNE 24.1 km/h 11.9 km/h 27 % 0 mm
13:09 29.7 °C 8.7 °C 1021.2 hPa NNE 25.7 km/h 12.4 km/h 27 % 0 mm
13:14 29.9 °C 8.3 °C 1021.2 hPa NNE 18.5 km/h 10.5 km/h 26 % 0 mm
13:19 29.8 °C 8.8 °C 1021.2 hPa NNW 20.4 km/h 12.4 km/h 27 % 0 mm
13:24 30.2 °C 8.6 °C 1021.2 hPa NE 20.4 km/h 14.6 km/h 26 % 0 mm
13:29 30.4 °C 8.2 °C 1021.2 hPa North 31.5 km/h 16.6 km/h 25 % 0 mm
13:34 30.4 °C 8.7 °C 1020.9 hPa North 17.7 km/h 11.7 km/h 26 % 0 mm
13:39 30.3 °C 7.5 °C 1020.9 hPa NNW 20.9 km/h 10.6 km/h 24 % 0 mm
13:44 30.1 °C 7.3 °C 1020.9 hPa North 18.5 km/h 15 km/h 24 % 0 mm
13:49 30.1 °C 7.9 °C 1020.9 hPa NNE 24.1 km/h 15.1 km/h 25 % 0 mm
13:54 30.3 °C 8.1 °C 1020.9 hPa North 18.5 km/h 12.1 km/h 25 % 0 mm
13:59 30.3 °C 8.1 °C 1020.9 hPa NNW 13 km/h 11.7 km/h 25 % 0 mm
14:04 30 °C 7.2 °C 1020.9 hPa NNW 18.5 km/h 9.8 km/h 24 % 0 mm
14:09 30.1 °C 7.3 °C 1020.5 hPa North 18.5 km/h 10.8 km/h 24 % 0 mm
14:14 30.2 °C 7.4 °C 1020.5 hPa NW 18.5 km/h 16.7 km/h 24 % 0 mm
14:19 30.3 °C 7.4 °C 1020.5 hPa NNW 20.4 km/h 11.7 km/h 24 % 0 mm
14:24 30.3 °C 8.1 °C 1020.5 hPa North 27.8 km/h 14.5 km/h 25 % 0 mm
14:29 30.7 °C 7.8 °C 1020.5 hPa North 18.5 km/h 10.8 km/h 24 % 0 mm
14:34 31 °C 8.1 °C 1020.5 hPa North 25.9 km/h 18.8 km/h 24 % 0 mm
14:39 31 °C 7.4 °C 1020.5 hPa NW 20.4 km/h 13.2 km/h 23 % 0 mm
14:44 30.9 °C 6.7 °C 1020.5 hPa NNW 18.5 km/h 7.4 km/h 22 % 0 mm
14:49 30.8 °C 7.3 °C 1020.5 hPa North 27.8 km/h 17.2 km/h 23 % 0 mm
14:54 31.1 °C 7.6 °C 1020.2 hPa North 16.7 km/h 6.6 km/h 23 % 0 mm
14:59 31.4 °C 7.8 °C 1020.2 hPa North 16.7 km/h 7.7 km/h 23 % 0 mm
15:04 31.2 °C 7.6 °C 1020.2 hPa NW 22.2 km/h 15.9 km/h 23 % 0 mm
15:09 31.2 °C 7.6 °C 1019.9 hPa WNW 19.3 km/h 15.3 km/h 23 % 0 mm
15:14 31.3 °C 7 °C 1019.9 hPa WNW 14.8 km/h 8.9 km/h 22 % 0 mm
15:19 31.3 °C 7.1 °C 1019.9 hPa North 20.4 km/h 12.4 km/h 22 % 0 mm
15:24 31.1 °C 6.2 °C 1019.9 hPa NNW 18.5 km/h 8 km/h 21 % 0 mm
15:29 31.3 °C 7 °C 1019.9 hPa NNW 14.8 km/h 11.6 km/h 22 % 0 mm
15:34 31.6 °C 7.2 °C 1019.5 hPa NW 20.9 km/h 9.2 km/h 22 % 0 mm
15:39 31.8 °C 7.5 °C 1019.5 hPa NNE 16.7 km/h 10.5 km/h 22 % 0 mm
15:44 32.4 °C 7.3 °C 1019.5 hPa NW 13 km/h 11.7 km/h 21 % 0 mm
15:49 32.3 °C 7.2 °C 1019.5 hPa North 12.9 km/h 11.4 km/h 21 % 0 mm
15:54 32.2 °C 7.8 °C 1019.2 hPa NNE 13 km/h 8 km/h 22 % 0 mm
15:59 32.3 °C 7.2 °C 1019.2 hPa North 13 km/h 5 km/h 21 % 0 mm
16:04 32.4 °C 7.3 °C 1019.2 hPa NW 14.8 km/h 9.5 km/h 21 % 0 mm
16:09 32.2 °C 6.4 °C 1019.2 hPa North 16.1 km/h 15.6 km/h 20 % 0 mm
16:14 32 °C 6.2 °C 1019.2 hPa NNE 18.5 km/h 8.9 km/h 20 % 0 mm
16:19 32 °C 6.2 °C 1018.8 hPa NNW 18.5 km/h 10 km/h 20 % 0 mm
16:24 32 °C 6.2 °C 1018.8 hPa NW 9.7 km/h 9.8 km/h 20 % 0 mm
16:29 32.2 °C 6.4 °C 1018.8 hPa NNE 13 km/h 6.6 km/h 20 % 0 mm
16:34 32.1 °C 7.1 °C 1018.8 hPa North 16.7 km/h 11.7 km/h 21 % 0 mm
16:39 32 °C 6.9 °C 1018.8 hPa North 3.7 km/h 2.6 km/h 21 % 0 mm
16:44 32.1 °C 6.3 °C 1018.8 hPa North 14.8 km/h 10 km/h 20 % 0 mm
16:49 32.1 °C 7 °C 1018.8 hPa North 11.3 km/h 6.3 km/h 21 % 0 mm
16:54 32.2 °C 6.4 °C 1018.8 hPa North 9.3 km/h 5.5 km/h 20 % 0 mm
16:59 32.7 °C 7.5 °C 1018.5 hPa North 7.4 km/h 4.5 km/h 21 % 0 mm
17:04 32.8 °C 6.9 °C 1018.5 hPa North 5.6 km/h 3.7 km/h 20 % 0 mm
17:09 32.6 °C 6.7 °C 1018.5 hPa North 13 km/h 6.3 km/h 20 % 0 mm
17:14 32.5 °C 6.6 °C 1018.5 hPa North 11.1 km/h 8.2 km/h 20 % 0 mm
17:19 32.6 °C 7.4 °C 1018.5 hPa North 14.8 km/h 5.1 km/h 21 % 0 mm
17:24 32.8 °C 6.9 °C 1018.5 hPa North 9.3 km/h 9 km/h 20 % 0 mm
17:29 32.5 °C 6.6 °C 1018.2 hPa North 13 km/h 4.7 km/h 20 % 0 mm
17:34 32.6 °C 6.7 °C 1018.2 hPa North 7.4 km/h 6.3 km/h 20 % 0 mm
17:39 32.8 °C 6.9 °C 1018.2 hPa NNE 7.4 km/h 4.2 km/h 20 % 0 mm
17:44 32.9 °C 6.9 °C 1018.2 hPa NNE 7.4 km/h 6 km/h 20 % 0 mm
17:49 32.7 °C 6.1 °C 1018.2 hPa NNE 5.6 km/h 3.5 km/h 19 % 0 mm
17:54 32.4 °C 6.6 °C 1018.2 hPa NNE 6.4 km/h 3.7 km/h 20 % 0 mm
17:59 32.1 °C 7.1 °C 1018.2 hPa NNE 7.4 km/h 5 km/h 21 % 0 mm
18:04 32.1 °C 7 °C 1018.2 hPa NNE 5.6 km/h 3.1 km/h 21 % 0 mm
18:09 32.5 °C 7.3 °C 1018.2 hPa NNE 5.6 km/h 3.5 km/h 21 % 0 mm
18:14 32.9 °C 6.2 °C 1018.2 hPa NNE 5.6 km/h 4.3 km/h 19 % 0 mm
18:19 32.9 °C 7 °C 1018.2 hPa NNE 5.6 km/h 3.9 km/h 20 % 0 mm
18:24 32.9 °C 6.2 °C 1018.2 hPa NNE 5.6 km/h 4.2 km/h 19 % 0 mm
18:29 32.8 °C 6.9 °C 1018.2 hPa NNE 5.6 km/h 4 km/h 20 % 0 mm
18:34 32.8 °C 6.9 °C 1018.2 hPa NNE 7.4 km/h 6.3 km/h 20 % 0 mm
18:39 32.6 °C 6 °C 1018.2 hPa NNE 1.9 km/h   19 % 0 mm
18:44 32.7 °C 6.8 °C 1018.2 hPa NNE 9.3 km/h 3.1 km/h 20 % 0 mm
18:49 32.5 °C 6.6 °C 1017.8 hPa NE 7.4 km/h 8 km/h 20 % 0 mm
18:54 32.2 °C 6.4 °C 1017.8 hPa NE 5.6 km/h 3.2 km/h 20 % 0 mm
18:59 32 °C 6.2 °C 1017.8 hPa NE 7.4 km/h 5.5 km/h 20 % 0 mm
19:04 31.9 °C 6.9 °C 1017.8 hPa NE 5.6 km/h 4.3 km/h 21 % 0 mm
19:09 31.9 °C 6.8 °C 1017.8 hPa NE 7.4 km/h 2.7 km/h 21 % 0 mm
19:14 31.9 °C 6.8 °C 1017.8 hPa NE 4.8 km/h 1.4 km/h 21 % 0 mm
19:19 31.8 °C 6.1 °C 1017.8 hPa NE 5.6 km/h 2.4 km/h 20 % 0 mm
19:24 31.7 °C 6.7 °C 1017.8 hPa NE 5.6 km/h 3.2 km/h 21 % 0 mm
19:29 31.6 °C 7.2 °C 1017.8 hPa NE 1.9 km/h 0.3 km/h 22 % 0 mm
19:34 31.4 °C 7.1 °C 1017.8 hPa NE 5.6 km/h 2.1 km/h 22 % 0 mm
19:39 31.2 °C 6.2 °C 1017.8 hPa NE 5.6 km/h 2.4 km/h 21 % 0 mm
19:44 31 °C 6.8 °C 1018.2 hPa NE 1.9 km/h 1.1 km/h 22 % 0 mm
19:49 30.7 °C 7.2 °C 1018.2 hPa NE 7.4 km/h 3.9 km/h 23 % 0 mm
19:54 30.4 °C 7.6 °C 1018.2 hPa NE 5.6 km/h 3.9 km/h 24 % 0 mm
19:59 30 °C 7.2 °C 1018.2 hPa NE 5.6 km/h 3.4 km/h 24 % 0 mm
20:04 29.7 °C 6.9 °C 1018.2 hPa NE 5.6 km/h 4 km/h 24 % 0 mm
20:09 29.3 °C 7.3 °C 1018.2 hPa NE 5.6 km/h 3.7 km/h 25 % 0 mm
20:14 28.9 °C 6.9 °C 1018.2 hPa NE 5.6 km/h 2.3 km/h 25 % 0 mm
20:19 28.7 °C 7.8 °C 1018.2 hPa Calm     27 % 0 mm
20:24 27.9 °C 7.7 °C 1018.2 hPa NE 3.2 km/h 2.7 km/h 28 % 0 mm
20:29 27.3 °C 7.7 °C 1018.5 hPa NE 14.5 km/h 10.3 km/h 29 % 0 mm
20:34 27.3 °C 7.2 °C 1018.5 hPa North 11.1 km/h 2.3 km/h 28 % 0 mm
20:39 27.4 °C 7.3 °C 1018.5 hPa North 11.1 km/h 2.3 km/h 28 % 0 mm
20:44 27.6 °C 6.9 °C 1018.8 hPa North 5.6 km/h 2.1 km/h 27 % 0 mm
20:49 27.4 °C 7.3 °C 1018.8 hPa SSW 16.7 km/h 12.9 km/h 28 % 0 mm
20:54 27.1 °C 7 °C 1018.8 hPa SSW 18.5 km/h 13 km/h 28 % 0 mm
20:59 26.8 °C 7.3 °C 1018.8 hPa South 13 km/h 7.6 km/h 29 % 0 mm
21:04 26.4 °C 6.9 °C 1018.8 hPa South 11.1 km/h 6.1 km/h 29 % 0 mm
21:09 26.2 °C 7.2 °C 1019.2 hPa South 7.4 km/h 7.2 km/h 30 % 0 mm
21:14 25.9 °C 7 °C 1019.2 hPa South 7.4 km/h 3.4 km/h 30 % 0 mm
21:19 25.7 °C 7.3 °C 1019.2 hPa South 7.4 km/h 6.4 km/h 31 % 0 mm
21:24 25.4 °C 7.1 °C 1019.2 hPa South 9.3 km/h 6.1 km/h 31 % 0 mm
21:29 25.3 °C 6.9 °C 1019.2 hPa South 7.4 km/h 5 km/h 31 % 0 mm
21:34 25.2 °C 7.3 °C 1019.2 hPa South 5.6 km/h 4 km/h 32 % 0 mm
21:39 25 °C 7.2 °C 1019.5 hPa South 3.7 km/h 1.9 km/h 32 % 0 mm
21:44 24.9 °C 7.5 °C 1019.5 hPa South 1.9 km/h 0.8 km/h 33 % 0 mm
21:49 24.7 °C 7.3 °C 1019.5 hPa South 7.4 km/h 5.6 km/h 33 % 0 mm
21:54 24.5 °C 7.6 °C 1019.5 hPa South 3.7 km/h 1.8 km/h 34 % 0 mm
21:59 24.4 °C 7.5 °C 1019.5 hPa South 3.7 km/h   34 % 0 mm
22:04 24.2 °C 7.3 °C 1019.5 hPa South 1.9 km/h 0.3 km/h 34 % 0 mm
22:09 24 °C 7.6 °C 1019.5 hPa South 1.9 km/h 0.2 km/h 35 % 0 mm
22:14 23.6 °C 8.4 °C 1019.5 hPa South 1.9 km/h   38 % 0 mm
22:19 22.9 °C 7.9 °C 1019.5 hPa Calm     38 % 0 mm
22:24 22.4 °C 8.2 °C 1019.5 hPa Calm     40 % 0 mm
22:29 21.9 °C 7.7 °C 1019.5 hPa Calm     40 % 0 mm
22:34 21.6 °C 8.5 °C 1019.5 hPa Calm     43 % 0 mm
22:39 21.3 °C 8.5 °C 1019.5 hPa Calm     44 % 0 mm
22:44 20.9 °C 8.2 °C 1019.5 hPa South 3.7 km/h 0.3 km/h 44 % 0 mm
22:49 20.8 °C 8.4 °C 1019.5 hPa Calm     45 % 0 mm
22:54 20.6 °C 8.6 °C 1019.5 hPa Calm     46 % 0 mm
22:59 20.6 °C 8.2 °C 1019.5 hPa Calm     45 % 0 mm
23:04 20.6 °C 8.2 °C 1019.5 hPa Calm     45 % 0 mm
23:09 20.6 °C 8.3 °C 1019.5 hPa Calm     45 % 0 mm
23:14 20.4 °C 8.1 °C 1019.2 hPa Calm     45 % 0 mm
23:19 20.3 °C 8.9 °C 1019.2 hPa Calm     48 % 0 mm
23:24 20 °C 8.7 °C 1019.2 hPa Calm     48 % 0 mm
23:29 19.9 °C 8.6 °C 1019.2 hPa South 5.6 km/h 3.4 km/h 48 % 0 mm
23:34 20 °C 8.7 °C 1019.2 hPa South 3.7 km/h 1.9 km/h 48 % 0 mm
23:39 20 °C 8.7 °C 1019.2 hPa South 3.7 km/h 3.1 km/h 48 % 0 mm
23:44 20 °C 8.7 °C 1019.2 hPa South 5.6 km/h 2.4 km/h 48 % 0 mm
23:49 20 °C 8.7 °C 1019.2 hPa South 1.9 km/h 1.1 km/h 48 % 0 mm
23:54 19.9 °C 8.6 °C 1019.2 hPa Calm     48 % 0 mm
23:59 19.7 °C 8.7 °C 1019.2 hPa Calm     49 % 0 mm
Ararat Weather
Compliments of Weather Underground - 2.25 mb
Click here to send mail.


ABOUT

Live weather data from Ararat, Victoria, Australia, 3377
Data uploaded from Cumulus every 5 minutes to Weather Underground.
This site then downloads the raw data for formatting and display.
Metric and imperial data can be displayed. Graphs and historical data available.
Includes Sun and Moon times and rain image live from BOM.

Check out Ararat Weather on Facebook, Twitter and Google +

Help support ongoing costs by checking out the ads





Follow @AraratWeather